User: anonymous   Login
Location: ?????
(30.2541°N, 31.0910°E)
Time: 23:46:24
(UTC+00:00)
Language:

Gbstr 26 Del rocket - Orbit

View from above orbital plane
View from above orbital plane
View from above satellite
View from above satellite

Ground track
Ground track

The orbit data is extracted from the following two-line orbital elements,

1 25876U 99041E   24105.22211917  .00001710  00000-0  32191-3 0  9996
2 25876  51.7612 187.6216 0518930 104.2949 261.6159 14.07956426265061
Epoch (UTC): 14 April 2024 05:19:51
Eccentricity: 0.0518930
inclination: 51.7612°
perigee height: 490 km
apogee height: 1242 km
right ascension of ascending node: 187.6216°
argument of perigee: 104.2949°
revolutions per day: 14.07956426
mean anomaly at epoch: 261.6159°
orbit number at epoch: 26506

The dashed part of the orbit path shows where the satellite is in the earth's shadow,  

DLR